OAL13X LGAV-LGMK

Flight info

Callsign OAL13X
Flight time 0h 27m
Altitude 15000
Route ATV L607 KEA
Aircraft DH8D/M-SDE2E3FGRY/H

Departure

Time 2026-05-09 10:36
Airport Athens Eleftherios Venizelos International Airport (LGAV)

Arrival

Time 2026-05-09 11:03
Airport Mykonos Island National Airport (LGMK)
Time Latitude Longitude Altitude Speed Heading
2026-05-09 10:22 37.94230 23.95553 316 ft 0 kts 37°
2026-05-09 10:27 37.94220 23.95544 316 ft 3 kts 37°
2026-05-09 10:28 37.94202 23.95527 316 ft 3 kts 37°
2026-05-09 10:28 37.94184 23.95509 316 ft 3 kts 38°
2026-05-09 10:28 37.94166 23.95491 316 ft 3 kts 38°
2026-05-09 10:28 37.94158 23.95483 316 ft 0 kts 39°
2026-05-09 10:29 37.94159 23.95485 316 ft 2 kts 46°
2026-05-09 10:30 37.94153 23.95519 316 ft 8 kts 121°
2026-05-09 10:30 37.94124 23.95571 316 ft 7 kts 125°
2026-05-09 10:30 37.94086 23.95651 316 ft 12 kts 102°
2026-05-09 10:30 37.94138 23.95743 316 ft 16 kts 38°
2026-05-09 10:31 37.94230 23.95832 316 ft 19 kts 37°
2026-05-09 10:31 37.94350 23.95946 316 ft 25 kts 37°
2026-05-09 10:31 37.94493 23.96081 316 ft 26 kts 37°
2026-05-09 10:31 37.94626 23.96208 316 ft 25 kts 37°
2026-05-09 10:32 37.94782 23.96354 316 ft 30 kts 37°
2026-05-09 10:32 37.94948 23.96512 316 ft 30 kts 37°
2026-05-09 10:32 37.95107 23.96663 316 ft 28 kts 37°
2026-05-09 10:32 37.95254 23.96802 316 ft 24 kts 37°
2026-05-09 10:33 37.95294 23.96902 316 ft 6 kts 115°
2026-05-09 10:33 37.95274 23.96937 316 ft 0 kts 127°
2026-05-09 10:34 37.95274 23.96938 316 ft 2 kts 127°
2026-05-09 10:34 37.95245 23.96987 316 ft 12 kts 127°
2026-05-09 10:35 37.95170 23.97000 316 ft 10 kts 217°
2026-05-09 10:35 37.95136 23.96968 316 ft 19 kts 216°
2026-05-09 10:35 37.94809 23.96660 316 ft 95 kts 217°
2026-05-09 10:35 37.94123 23.96010 487 ft 139 kts 214°
2026-05-09 10:36 37.93292 23.95263 1053 ft 153 kts 214°
2026-05-09 10:36 37.92565 23.94177 1685 ft 168 kts 238°
2026-05-09 10:36 37.92120 23.92780 2352 ft 177 kts 247°
2026-05-09 10:36 37.91847 23.91784 2793 ft 182 kts 248°
2026-05-09 10:37 37.91423 23.90239 3463 ft 188 kts 248°
2026-05-09 10:37 37.91003 23.88689 4171 ft 189 kts 248°
2026-05-09 10:37 37.90543 23.87132 4964 ft 188 kts 238°
2026-05-09 10:37 37.89577 23.86095 5752 ft 191 kts 202°
2026-05-09 10:38 37.88248 23.85946 6512 ft 199 kts 176°
2026-05-09 10:38 37.86904 23.86434 7219 ft 206 kts 161°
2026-05-09 10:38 37.85613 23.87286 7917 ft 212 kts 153°
2026-05-09 10:38 37.84390 23.88385 8589 ft 217 kts 146°
2026-05-09 10:39 37.83245 23.89618 9232 ft 221 kts 143°
2026-05-09 10:39 37.82140 23.90932 9859 ft 224 kts 140°
2026-05-09 10:39 37.81047 23.92331 10486 ft 229 kts 139°
2026-05-09 10:39 37.79955 23.93811 11040 ft 236 kts 137°
2026-05-09 10:40 37.78881 23.95336 11607 ft 241 kts 136°
2026-05-09 10:40 37.77825 23.96890 12166 ft 245 kts 135°
2026-05-09 10:40 37.76719 23.98552 12735 ft 249 kts 135°
2026-05-09 10:40 37.75603 24.00244 13270 ft 253 kts 134°
2026-05-09 10:41 37.74469 24.01965 13794 ft 256 kts 135°
2026-05-09 10:41 37.73332 24.03682 14285 ft 259 kts 135°
2026-05-09 10:41 37.72156 24.05448 14762 ft 264 kts 135°
2026-05-09 10:41 37.70941 24.07261 14951 ft 278 kts 135°
2026-05-09 10:42 37.69665 24.09151 15016 ft 293 kts 135°
2026-05-09 10:42 37.68338 24.11114 15054 ft 306 kts 135°
2026-05-09 10:42 37.66926 24.13203 15057 ft 318 kts 135°
2026-05-09 10:42 37.65490 24.15335 15058 ft 328 kts 134°
2026-05-09 10:43 37.64037 24.17497 15058 ft 336 kts 134°
2026-05-09 10:43 37.62519 24.19758 15058 ft 343 kts 134°
2026-05-09 10:43 37.60972 24.22059 15059 ft 348 kts 134°
2026-05-09 10:43 37.59423 24.24361 15059 ft 352 kts 134°
2026-05-09 10:44 37.57878 24.26656 15060 ft 356 kts 134°
2026-05-09 10:44 37.56410 24.29168 15060 ft 363 kts 123°
2026-05-09 10:44 37.55435 24.32138 15062 ft 371 kts 108°
2026-05-09 10:44 37.54941 24.35246 15063 ft 374 kts 99°
2026-05-09 10:45 37.54636 24.38442 15063 ft 376 kts 97°
2026-05-09 10:46 37.53412 24.51466 15068 ft 380 kts 98°
2026-05-09 10:46 37.53053 24.54710 15069 ft 380 kts 99°
2026-05-09 10:46 37.52689 24.57916 15070 ft 381 kts 99°
2026-05-09 10:46 37.52316 24.61189 15070 ft 381 kts 99°
2026-05-09 10:47 37.51945 24.64489 15070 ft 381 kts 98°
2026-05-09 10:47 37.51583 24.67745 15069 ft 382 kts 98°
2026-05-09 10:47 37.51228 24.70958 15071 ft 382 kts 98°
2026-05-09 10:47 37.50863 24.74271 15071 ft 382 kts 98°
2026-05-09 10:48 37.50497 24.77582 15073 ft 382 kts 98°
2026-05-09 10:48 37.50139 24.80813 15072 ft 382 kts 98°
2026-05-09 10:48 37.49949 24.82514 15068 ft 384 kts 98°
2026-05-09 10:48 37.49596 24.85633 14651 ft 383 kts 99°
2026-05-09 10:49 37.49233 24.88880 14221 ft 380 kts 99°
2026-05-09 10:49 37.48888 24.91992 13805 ft 377 kts 99°
2026-05-09 10:49 37.48530 24.95218 13376 ft 375 kts 99°
2026-05-09 10:49 37.48171 24.98437 12948 ft 372 kts 99°
2026-05-09 10:50 37.47811 25.01633 12522 ft 370 kts 99°
2026-05-09 10:50 37.47452 25.04800 12097 ft 366 kts 100°
2026-05-09 10:50 37.47099 25.07896 11682 ft 358 kts 100°
2026-05-09 10:50 37.46755 25.10899 11280 ft 348 kts 100°
2026-05-09 10:51 37.46414 25.13844 10885 ft 339 kts 100°
2026-05-09 10:51 37.46078 25.16716 10499 ft 329 kts 100°
2026-05-09 10:51 37.45760 25.19456 10130 ft 320 kts 100°
2026-05-09 10:51 37.45445 25.22165 9765 ft 311 kts 100°
2026-05-09 10:52 37.45141 25.24794 9410 ft 302 kts 100°
2026-05-09 10:52 37.44847 25.27327 9048 ft 295 kts 100°
2026-05-09 10:52 37.44559 25.29809 8702 ft 287 kts 100°
2026-05-09 10:52 37.44276 25.32250 8367 ft 280 kts 100°
2026-05-09 10:53 37.43892 25.34587 8187 ft 261 kts 115°
2026-05-09 10:53 37.42935 25.36284 8313 ft 226 kts 145°
2026-05-09 10:53 37.41579 25.37063 8488 ft 203 kts 177°
2026-05-09 10:53 37.40240 25.36813 8559 ft 189 kts 210°
2026-05-09 10:54 37.39313 25.35688 8482 ft 188 kts 243°
2026-05-09 10:54 37.39093 25.34101 8322 ft 195 kts 276°
2026-05-09 10:54 37.39656 25.32518 8156 ft 205 kts 302°
2026-05-09 10:54 37.40538 25.31143 7974 ft 206 kts 303°
2026-05-09 10:55 37.41270 25.29578 7474 ft 209 kts 289°
2026-05-09 10:55 37.41696 25.27892 7353 ft 195 kts 279°
2026-05-09 10:55 37.41891 25.26262 7232 ft 186 kts 272°
2026-05-09 10:55 37.41958 25.24641 7032 ft 188 kts 269°
2026-05-09 10:56 37.41947 25.22989 6797 ft 188 kts 266°
2026-05-09 10:56 37.41899 25.21380 6599 ft 185 kts 271°
2026-05-09 10:56 37.42320 25.19876 6324 ft 194 kts 301°
2026-05-09 10:56 37.43308 25.18695 5874 ft 205 kts 320°
2026-05-09 10:57 37.44540 25.17793 5405 ft 210 kts 329°
2026-05-09 10:57 37.45846 25.17070 4942 ft 212 kts 334°
2026-05-09 10:57 37.47224 25.16431 4468 ft 213 kts 337°
2026-05-09 10:57 37.48626 25.16230 4188 ft 208 kts
2026-05-09 10:58 37.49896 25.16894 3964 ft 202 kts 33°
2026-05-09 10:58 37.50899 25.18070 3530 ft 205 kts 50°
2026-05-09 10:58 37.51727 25.19530 3040 ft 210 kts 59°
2026-05-09 10:58 37.52394 25.21115 2554 ft 212 kts 68°
2026-05-09 10:59 37.52722 25.22858 2214 ft 202 kts 91°
2026-05-09 10:59 37.52542 25.24515 2177 ft 189 kts 108°
2026-05-09 10:59 37.52121 25.25989 2245 ft 177 kts 116°
2026-05-09 10:59 37.51635 25.27349 2211 ft 167 kts 118°
2026-05-09 11:00 37.51151 25.28609 2102 ft 149 kts 124°
2026-05-09 11:00 37.50537 25.29533 1896 ft 131 kts 141°
2026-05-09 11:00 37.49910 25.30296 1681 ft 129 kts 136°
2026-05-09 11:00 37.49326 25.31140 1472 ft 126 kts 133°
2026-05-09 11:01 37.48741 25.31925 1297 ft 119 kts 139°
2026-05-09 11:01 37.48085 25.32552 1158 ft 119 kts 147°
2026-05-09 11:01 37.47352 25.33036 1015 ft 119 kts 152°
2026-05-09 11:01 37.46589 25.33440 874 ft 120 kts 156°
2026-05-09 11:02 37.45805 25.33803 755 ft 119 kts 157°
2026-05-09 11:02 37.45017 25.34158 587 ft 121 kts 156°
2026-05-09 11:02 37.44229 25.34503 447 ft 121 kts 158°
2026-05-09 11:02 37.43474 25.34840 413 ft 102 kts 159°
2026-05-09 11:03 37.43052 25.35027 413 ft 21 kts 165°
2026-05-09 11:03 37.43003 25.35048 413 ft 5 kts 18°
2026-05-09 11:03 37.43053 25.35027 413 ft 12 kts 339°
2026-05-09 11:03 37.43158 25.34981 413 ft 19 kts 341°
2026-05-09 11:04 37.43292 25.34925 413 ft 20 kts 341°
2026-05-09 11:04 37.43397 25.34839 413 ft 13 kts 296°
2026-05-09 11:04 37.43404 25.34761 413 ft 7 kts 228°
2026-05-09 11:04 37.43382 25.34710 413 ft 12 kts 273°
2026-05-09 11:05 37.43431 25.34667 413 ft 5 kts 343°
2026-05-09 11:05 37.43453 25.34658 413 ft 0 kts 341°